Torna al catalogo

CZ-6A DEB

AttivoPO
NORAD 64649·DEBRIS·🇨🇳 China

Lanciato Aug 6, 2024 da Taiyuan Satellite Launch Center

Loading…

Prossimi Passaggi (prossime 24 ore)

TLE

AggiornatoSource: Space-Track

Epoca: Sep 14, 2026, 10:19 UTC

1 64649U 24140AEP 26257.43021485  .00003920  00000-0  92097-3 0  9993
2 64649  88.9174 252.8594 0054910 356.6772   3.4064 14.53348471102233

Traccia CZ-6A DEB in tempo reale con AllMySat

Download on the App Store